Starlink 31561

operational
NORAD ID: 59352 Int'l Des: 2024-060 Owner: SPXS Country: US Constellation: starlink
LEOCIRCULAR

About Starlink 31561

Description loading...

Live Position

Loading 3D Globe...

Upcoming Passes

Altitude History

Altitude vs Time

uPlot chart will show altitude changes over time

Two-Line Element Set

1 59352U 24060E 25305.57101772 .00000252 00000-0 18681-4 0 9998
2 59352 43.0043 262.9858 0001193 270.0659 90.0056 15.27567342 90475
Epoch: Nov 1, 2025 • Age: 17 hours

Current Status

Altitude 495.6 km
Velocity 7.62 km/s
Sub-Earth Point -43.15°S, 30.35°E
Launch Date Mar 31, 2024
Age 1.5 years
Type internet

Technical Details

Classification Payload
Mass 730.00 kg
Dry Mass 700.00 kg
Total Mass 730.00 kg
Length 0.30 m
Diameter 4.10 m
Span 29.00 m
Shape Box + pan
Manufacturer SPXS
Bus Type Starlink V2M
Phase Status In Orbit
Owner/State SPXS/US

Large Constellations

Loading constellations...